Simultaneous Nadir Overpasses (SNOs) Predictions

Prediction of SNOs between LANDSAT-8 and METOP-B Satellite Orbit:

Table of predicted SNOs for the next 14.0 days since TLE Epoch: 7/10/2015
Index Date (LANDSAT-8) Time (LANDSAT-8) Lat,Lon (LANDSAT-8) SZA (LANDSAT-8 ) Date (METOP-B) Time (METOP-B) Lat,Lon (METOP-B) SZA (METOP-B ) Distance(km) Time Diff (sec)
1 07/11/2015 11:07:15 -81.10,-127.15 119.01 07/11/2015 11:06:24 -81.10,-127.18 119.03 0.62 51
2 07/11/2015 11:56:40 81.13, 40.97 61.07 07/11/2015 11:57:03 81.13, 40.84 61.07 2.12 23
3 07/14/2015 06:41:31 -81.12, -60.41 118.58 07/14/2015 06:40:45 -81.12, -60.32 118.59 1.58 46
4 07/14/2015 07:30:57 81.13, 107.32 61.45 07/14/2015 07:31:25 81.13, 107.29 61.46 0.69 28
5 07/17/2015 02:15:47 -81.11, 5.89 118.16 07/17/2015 02:15:07 -81.11, 5.76 118.19 2.15 40
6
